Location: SE Lincoln, NE
(40.7805°N, 96.6275°W)
Time: 03:21:13
(UTC-05:00)

Gbstr 26 Del rocket - Pass Details

Date: 15 May 2021
Orbit: 492 x 1263 km, 51.8° (Epoch: 23 June)

Event Time Altitude Azimuth Distance (km) Brightness Sun altitude
Rises 23:41:26 0° 305° (NW) 4,100 8.2 -25.6°
Reaches altitude 10° 23:44:26 10° 307° (NW) 3,057 7.4 -25.9°
Maximum altitude 23:51:53 79° 34° (NE) 1,033 4.1 -26.4°
Enters shadow 23:53:20 56° 107° (ESE) 1,146 4.1 -26.6°
